This demonstration page uses our WeatherBlox Daily Observations layout. Learn more.

Hourly Observations for April 23, 2015

Temp ( °F °C ) Dew Point ( °F °C ) Humidity (%) Winds ( mph kmh ) Pressure ( in mb ) Visibility ( mi km ) Precip ( " mm )
12:15 am 00:15 Clear 42 5.4 30 -1.1 63 63 SE 10 17 30.06 1018 10 16.0934 0 0
12:35 am 00:35 Clear 41 5.2 30 -1.3 63 63 SE 9 15 30.06 1018 10 16.0934 0 0
12:55 am 00:55 Clear 41 5.1 29 -1.5 63 63 SE 10 17 30.06 1018 10 16.0934 0 0
1:15 am 01:15 Clear 41 5 30 -1.3 64 64 SSE 13 20 30.03 1017 10 16.0934 0 0
1:35 am 01:35 Clear 40 4.7 29 -1.5 64 64 SSE 10 17 30.06 1018 10 16.0934 0 0
1:55 am 01:55 Clear 40 4.2 29 -1.5 67 67 SSE 10 17 30.03 1017 10 16.0934 0 0
2:15 am 02:15 Clear 38 3.6 29 -1.6 69 69 SSE 8 13 30.03 1017 10 16.0934 0 0
2:35 am 02:35 Clear 39 3.8 29 -1.8 67 67 SSE 8 13 30.03 1017 10 16.0934 0 0
2:55 am 02:55 Clear 40 4.3 28 -2.1 63 63 S 9 15 30.03 1017 10 16.0934 0 0
3:15 am 03:15 Clear 40 4.6 28 -2.3 61 61 SSE 9 15 30.03 1017 10 16.0934 0 0
3:35 am 03:35 Clear 40 4.3 28 -2.3 63 63 SSE 9 15 30.03 1017 10 16.0934 0 0
3:55 am 03:55 Clear 41 4.9 27 -2.9 57 57 S 14 22 30.03 1017 10 16.0934 0 0
4:15 am 04:15 Clear 40 4.6 27 -2.9 59 59 S 13 20 30.03 1017 10 16.0934 0 0
4:35 am 04:35 Clear 40 4.5 27 -2.9 59 59 S 10 17 30.03 1017 10 16.0934 0 0
4:55 am 04:55 Clear 39 4 27 -2.7 62 62 S 12 19 30.03 1017 10 16.0934 0 0
5:15 am 05:15 Clear 39 4 27 -2.6 62 62 S 9 15 30.03 1017 10 16.0934 0 0
5:35 am 05:35 Clear 39 4 27 -2.6 62 62 S 12 19 30.03 1017 10 16.0934 0 0
5:55 am 05:55 Clear 39 3.7 28 -2.5 64 64 S 10 17 30.03 1017 10 16.0934 0 0
6:15 am 06:15 Clear 38 3.5 28 -2.4 66 66 S 9 15 30.03 1017 10 16.0934 0 0
6:35 am 06:35 Clear 38 3.4 28 -2.3 67 67 S 9 15 30.03 1017 10 16.0934 0 0
6:55 am 06:55 Sunny 38 3.3 28 -2.3 67 67 S 9 15 30.03 1017 10 16.0934 0 0
7:15 am 07:15 Sunny 38 3.6 28 -2 67 67 S 7 11 30.03 1017 10 16.0934 0 0
7:35 am 07:35 Sunny 39 4.1 29 -1.5 67 67 S 10 17 30.03 1017 10 16.0934 0 0
7:55 am 07:55 Sunny 41 5.2 30 -1.2 64 64 SSE 8 13 30.06 1018 10 16.0934 0 0
8:15 am 08:15 Sunny 44 6.4 29 -1.4 58 58 S 15 24 30.03 1017 10 16.0934 0 0
8:35 am 08:35 Sunny 45 7.4 30 -1.2 55 55 SSE 16 26 30.03 1017 10 16.0934 0 0
8:55 am 08:55 Sunny 47 8.6 30 -1 51 51 SSE 15 24 30.03 1017 10 16.0934 0 0
9:15 am 09:15 Sunny 49 9.3 30 -1.3 48 48 SSE 18 30 30.03 1017 10 16.0934 0 0
9:35 am 09:35 Sunny 50 10.2 31 -0.6 47 47 SSE 20 31 30 1016 10 16.0934 0 0
9:55 am 09:55 Sunny 52 11 31 -0.6 45 45 SSE 21 33 30 1016 10 16.0934 0 0
10:15 am 10:15 Partly Cloudy 53 11.5 31 -0.5 44 44 SSE 20 31 30 1016 10 16.0934 0 0
10:35 am 10:35 Partly Cloudy 54 12.1 31 -0.5 42 42 S 15 24 30 1016 10 16.0934 0 0
10:55 am 10:55 Mostly Cloudy 55 12.5 31 -0.7 40 40 SSE 20 31 29.97 1015 10 16.0934 0 0
11:15 am 11:15 Partly Cloudy 55 12.9 31 -0.5 40 40 SSE 17 28 29.97 1015 10 16.0934 0 0
11:35 am 11:35 Mostly Cloudy 56 13.2 32 -0.1 40 40 S 16 26 29.94 1014 10 16.0934 0 0
11:55 am 11:55 Mostly Cloudy 57 13.9 33 0.5 40 40 S 14 22 29.94 1014 10 16.0934 0 0
12:15 pm 12:15 Cloudy 57 13.9 34 1 42 42 SSE 15 24 29.94 1014 10 16.0934 0 0
12:35 pm 12:35 Cloudy 58 14.6 35 1.7 42 42 S 15 24 29.94 1014 10 16.0934 0 0
12:55 pm 12:55 Mostly Cloudy 60 15.6 35 1.5 39 39 SSE 15 24 29.88 1012 10 16.0934 0 0
1:15 pm 13:15 Partly Cloudy 63 17 34 1.2 35 35 SSE 16 26 29.88 1012 10 16.0934 0 0
1:35 pm 13:35 Mostly Cloudy 61 16.2 33 0.8 35 35 SSE 16 26 29.88 1012 10 16.0934 0 0
1:55 pm 13:55 Mostly Cloudy 62 16.5 37 2.5 39 39 SSE 18 30 29.85 1011 10 16.0934 0 0
2:15 pm 14:15 Mostly Cloudy 63 17.2 36 2.4 37 37 S 17 28 29.85 1011 10 16.0934 0 0
2:35 pm 14:35 Partly Cloudy 63 17 36 2.2 37 37 SSE 17 28 29.85 1011 10 16.0934 0 0
2:55 pm 14:55 Partly Cloudy 62 16.7 38 3.2 41 41 SSE 16 26 29.85 1011 10 16.0934 0 0
3:15 pm 15:15 Partly Cloudy 64 18 37 3 37 37 SSE 20 31 29.83 1010 10 16.0934 0 0
3:35 pm 15:35 Sunny 65 18.1 38 3.2 37 37 SSE 16 26 29.83 1010 10 16.0934 0 0
3:55 pm 15:55 Sunny 65 18.2 37 2.8 36 36 SSE 22 35 29.77 1008 10 16.0934 0 0
4:15 pm 16:15 Sunny 65 18.2 37 2.7 36 36 SSE 23 37 29.77 1008 10 16.0934 0 0
4:35 pm 16:35 Sunny 65 18.4 37 2.7 35 35 S 23 37 29.77 1008 10 16.0934 0 0
4:55 pm 16:55 Sunny 65 18.3 37 2.9 36 36 S 23 37 29.74 1007 10 16.0934 0 0
5:15 pm 17:15 Sunny 65 18.1 38 3.2 37 37 SSE 20 31 29.74 1007 10 16.0934 0 0
5:35 pm 17:35 Sunny with Nearby Thunderstorms 64 18 38 3.6 39 39 SSE 23 37 29.74 1007 10 16.0934 0 0
5:55 pm 17:55 Partly Cloudy 64 17.9 39 3.7 39 39 S 17 28 29.74 1007 10 16.0934 0 0
6:15 pm 18:15 Mostly Cloudy 64 17.7 39 4 40 40 SSE 20 31 29.74 1007 10 16.0934 0 0
6:35 pm 18:35 Cloudy 63 17.3 40 4.4 43 43 SSE 18 30 29.77 1008 10 16.0934 0 0
6:55 pm 18:55 Cloudy 63 17.1 41 4.9 45 45 SSE 18 30 29.74 1007 10 16.0934 0 0
7:15 pm 19:15 Cloudy 62 16.5 41 5 47 47 SSE 20 31 29.74 1007 10 16.0934 0 0
7:35 pm 19:35 Cloudy 61 16.3 42 5.5 49 49 SSE 17 28 29.74 1007 10 16.0934 0 0
7:55 pm 19:55 Cloudy 60 15.8 42 5.5 51 51 SE 16 26 29.74 1007 10 16.0934 0 0
8:15 pm 20:15 Cloudy 60 15.6 43 6 53 53 SSE 16 26 29.74 1007 10 16.0934 0 0
8:35 pm 20:35 Cloudy 60 15.3 44 6.4 56 56 SSE 17 28 29.74 1007 10 16.0934 0 0
8:55 pm 20:55 Cloudy 59 15.1 44 6.6 57 57 SSE 15 24 29.77 1008 10 16.0934 0 0
9:15 pm 21:15 Cloudy 58 14.5 44 6.5 59 59 SSE 17 28 29.74 1007 10 16.0934 0 0
9:35 pm 21:35 Mostly Cloudy 57 14.1 44 6.5 60 60 SSE 15 24 29.8 1009 10 16.0934 0 0
9:55 pm 21:55 Partly Cloudy 57 13.7 43 6.2 61 61 SSE 16 26 29.8 1009 10 16.0934 0 0
10:15 pm 22:15 Clear 56 13.5 43 6 61 61 SSE 12 19 29.8 1009 10 16.0934 0 0
10:35 pm 22:35 Clear 55 13 42 5.6 61 61 SE 14 22 29.8 1009 10 16.0934 0 0
10:55 pm 22:55 Clear 55 12.7 42 5.4 61 61 SSE 14 22 29.8 1009 10 16.0934 0 0
11:15 pm 23:15 Mostly Cloudy 55 12.5 42 5.3 62 62 SSE 13 20 29.8 1009 10 16.0934 0 0
11:35 pm 23:35 Cloudy 55 12.7 42 5.5 62 62 SSE 10 17 29.8 1009 10 16.0934 0 0
11:55 pm 23:55 Mostly Cloudy 54 12.4 42 5.6 63 63 SSE 14 22 29.8 1009 10 16.0934 0 0

Powered by AerisWeather